Wind_Speed
15 12 10 9 8 8 10 12 15 15 17 19 20 20 19 18 17 15 13 13 11 10 8 7 7 6 5 4 3 3 2 2 1 1 1 1 1 1 1 2 2 2 2
13 11 9 8 7 6 8 11 14 15 17 20 20 19 19 18 16 16 14 13 11 10 8 7 7 6 5 4 4 3 3 2 1 1 0 1 2 2 2 2 2 2 2
12 10 8 7 6 6 8 11 13 15 17 19 20 19 19 17 17 16 15 13 12 10 9 8 7 7 6 5 4 4 3 3 2 1 1 1 2 2 2 3 3 3 3
11 9 7 6 5 6 7 10 13 15 16 18 18 18 18 17 17 17 15 14 13 11 10 9 9 8 7 6 6 5 4 3 2 2 1 1 2 2 3 3 4 4 4
9 8 7 6 5 5 6 8 12 15 17 18 18 17 18 18 18 17 16 15 13 12 11 10 10 9 8 8 7 6 5 3 3 2 2 2 2 3 3 4 4 4 5
8 7 6 5 4 4 5 7 10 14 16 17 18 18 18 18 18 17 16 15 14 13 12 11 11 10 10 9 8 7 6 5 4 3 3 3 4 4 4 5 5 6 6
8 7 5 5 4 3 4 7 9 12 14 16 18 18 18 18 17 16 15 14 14 13 13 13 12 12 11 11 10 9 8 7 6 6 5 6 6 6 7 7 7 8 8
8 7 6 5 4 3 3 6 8 10 13 15 18 18 18 18 17 16 15 15 14 15 14 14 14 13 13 13 12 11 11 10 9 9 8 9 9 9 10 10 10 11 11
8 8 7 6 5 3 3 5 7 9 11 15 17 17 17 17 17 16 15 15 15 15 16 15 15 15 15 15 14 13 13 13 12 12 12 12 12 13 13 13 14 14 14
8 8 7 6 5 3 3 4 7 10 11 13 15 16 16 16 16 16 16 16 15 15 17 17 16 16 16 17 17 16 16 16 16 16 16 16 16 16 16 17 17 17 18
8 7 6 6 5 3 2 3 5 8 11 12 13 15 15 16 15 15 16 16 16 16 17 17 17 17 17 18 18 19 19 19 19 20 20 20 20 20 20 21 21 21 21
8 7 6 5 5 4 3 3 4 6 9 11 12 13 14 15 15 15 16 17 17 17 17 18 18 18 18 19 20 20 21 21 22 23 23 23 24 24 24 24 25 25 25
9 8 7 6 5 4 4 4 4 5 8 10 12 12 13 14 14 16 17 18 18 18 18 19 19 19 20 20 21 22 23 24 25 25 26 26 26 27 28 28 28 29 29
11 10 9 8 7 6 6 6 6 6 7 9 10 11 12 13 14 15 15 16 18 19 20 20 21 22 22 23 24 25 26 26 27 28 28 29 29 30 31 31 32 32 33
12 12 11 11 10 9 8 8 8 8 8 9 10 11 13 14 14 14 15 17 18 20 21 22 24 24 25 26 27 27 28 29 30 31 31 32 33 33 34 34 34 35 35
14 13 13 13 12 12 11 10 10 11 11 11 12 13 14 14 15 16 17 18 19 20 22 23 24 26 27 28 29 30 31 32 33 33 34 35 36 36 36 37 38 38 38
16 16 15 15 15 14 13 13 13 13 12 13 13 14 15 16 17 18 19 20 20 21 23 23 25 26 28 30 31 33 34 34 35 36 37 37 38 39 39 39 39 40 40
19 18 18 17 16 15 15 15 15 15 15 15 16 16 17 18 20 20 21 23 23 24 25 26 27 28 29 31 32 33 34 36 37 38 39 39 40 39 40 41 40 40 40
22 21 20 20 19 19 18 18 18 19 18 18 19 19 19 20 21 21 23 24 25 26 28 28 29 30 31 32 34 34 35 36 37 38 39 39 40 40 40 40 41 41 42
23 23 23 22 22 21 21 21 20 20 21 21 21 22 22 22 23 23 25 26 27 29 31 31 32 32 32 33 35 36 37 37 38 38 39 40 41 42 42 43 43 44 44
25 24 24 24 24 24 23 22 22 22 23 23 24 24 25 25 26 26 28 29 30 31 32 33 33 34 35 36 37 39 40 40 40 41 42 42 44 45 45 45 45 45 46
25 25 25 25 25 24 24 24 24 25 25 26 26 25 26 27 28 28 30 30 31 32 33 34 35 35 37 38 39 40 41 42 42 42 43 44 45 46 46 47 47 48 48
27 27 27 27 27 26 26 27 27 27 26 26 26 26 27 28 29 30 31 32 33 34 35 36 37 38 39 41 42 42 43 44 44 44 45 46 47 48 49 49 50 49 49
28 28 27 27 27 27 28 28 28 28 28 27 28 28 28 29 30 31 32 33 34 35 35 37 38 39 41 42 43 44 45 46 46 46 46 47 48 48 49 49 50 51 51
28 28 28 28 28 28 29 29 28 27 27 27 28 28 29 30 31 32 33 33 34 35 36 37 39 40 41 42 44 44 45 45 46 47 47 48 48 50 50 49 49 50 51
28 28 28 28 28 28 28 28 28 27 27 27 27 28 29 30 31 32 32 33 35 36 37 38 40 41 42 43 43 44 45 46 47 48 49 49 49 50 50 51 51 51 51
Wind_Direction
318 313 304 295 282 255 231 221 216 210 209 207 206 209 213 212 214 211 206 204 202 198 197 196 195 187 176 174 179 183 193 205 213 217 289 333 347 345 355 359 356 346 321
320 319 310 298 281 263 233 221 214 212 209 207 207 207 209 211 209 206 205 206 204 199 200 199 199 190 184 182 182 183 187 184 183 192 275 331 339 333 342 348 350 346 332
320 317 309 297 286 265 240 226 219 216 209 208 210 211 211 209 204 203 204 205 204 204 204 204 201 197 194 190 186 184 182 180 186 196 258 308 330 341 339 340 338 330 327
319 318 312 303 284 262 245 229 222 218 212 210 211 211 209 205 205 204 206 205 206 207 207 207 203 199 197 197 194 190 189 190 202 216 250 283 313 329 338 337 334 330 322
323 321 317 309 292 272 243 228 224 217 213 211 209 209 206 204 204 206 208 207 208 209 209 206 203 202 202 204 204 204 204 207 214 232 256 268 282 302 315 321 320 322 319
340 334 329 319 296 282 249 230 218 211 210 211 210 209 206 204 205 208 210 210 211 212 212 208 207 208 210 213 214 215 217 221 228 243 259 269 276 285 296 304 309 310 311
342 338 335 333 310 288 250 226 217 211 208 207 206 208 209 207 208 210 211 212 214 215 214 213 214 217 217 219 221 224 227 235 245 255 264 270 276 282 288 294 298 301 302
341 336 328 337 325 288 247 226 218 210 208 206 207 208 209 209 210 211 213 214 216 217 218 221 223 224 225 227 229 233 236 242 251 260 266 272 277 282 285 288 291 293 296
332 335 330 326 325 298 242 221 216 212 209 207 209 208 209 211 214 214 217 219 222 222 224 229 231 231 232 234 236 240 243 248 254 260 266 271 276 281 283 285 287 289 291
323 329 327 320 316 298 265 240 227 216 206 207 210 213 212 212 214 219 223 225 226 228 231 233 235 237 238 240 243 245 248 252 257 262 266 270 275 279 282 284 285 286 288
317 325 323 320 314 303 275 247 218 211 209 209 210 213 215 218 221 222 225 228 230 233 235 237 238 241 244 246 248 250 253 256 260 264 268 271 274 278 280 281 283 284 285
301 308 316 312 307 293 274 245 227 221 218 214 214 216 219 223 224 226 230 233 235 237 240 241 243 245 248 250 251 254 256 259 262 266 269 272 274 276 278 280 281 282 283
287 287 293 299 301 287 260 250 241 230 225 223 222 223 225 227 230 234 236 238 239 242 243 246 249 251 253 255 256 258 260 263 266 268 270 273 275 276 277 278 280 281 281
277 278 279 285 285 276 264 254 245 240 236 231 228 229 230 231 236 240 242 242 244 246 248 251 254 256 257 259 260 262 264 266 268 270 271 273 275 276 277 278 280 280 280
269 273 273 276 274 269 264 257 250 247 242 238 236 237 238 240 244 248 249 250 251 253 254 256 258 260 261 263 264 266 267 269 271 272 273 273 275 277 278 278 279 281 280
264 267 269 272 269 264 260 257 254 253 250 247 246 245 246 247 250 252 254 256 258 259 260 263 264 264 265 266 267 268 271 272 273 273 274 275 276 277 278 278 279 280 279
259 261 263 266 266 260 257 259 258 256 257 255 252 251 252 253 256 257 258 259 262 264 266 269 269 269 271 271 271 271 272 273 274 274 274 275 276 276 277 278 279 280 279
254 258 261 262 263 262 260 261 261 260 259 260 259 258 257 258 261 263 263 263 265 268 270 271 273 274 274 275 276 276 275 276 277 276 276 277 278 278 278 277 278 279 278
252 255 257 258 260 259 259 261 261 259 259 260 262 264 263 263 264 266 266 267 268 270 271 273 275 276 277 278 279 280 280 280 280 280 279 279 279 279 279 278 278 278 277
250 252 254 255 257 257 256 258 261 260 260 262 264 263 264 266 267 267 268 269 271 273 274 274 276 277 278 280 281 283 283 282 280 280 280 279 279 279 278 278 277 277 276
247 249 251 252 255 257 256 256 259 261 262 263 264 264 264 265 268 269 270 273 274 276 277 276 276 277 278 280 281 282 283 283 282 281 281 281 280 280 279 279 278 277 277
245 247 250 252 254 257 257 258 257 259 261 262 262 263 265 267 269 271 272 273 274 276 278 278 277 278 279 280 281 283 283 283 283 282 282 282 281 280 280 280 280 279 278
244 246 248 251 252 255 257 259 258 258 258 260 261 263 266 267 269 271 273 275 277 277 278 279 279 279 280 281 282 283 284 284 283 282 282 282 281 280 280 280 280 280 280
244 246 248 251 253 255 257 258 256 255 258 260 261 264 266 268 271 273 274 276 278 278 279 280 281 281 281 282 282 283 283 283 283 282 281 281 281 282 282 281 280 279 280
242 245 248 250 252 253 255 255 254 255 257 260 263 264 267 270 273 275 277 278 279 279 280 281 282 282 282 283 283 283 284 284 284 283 282 281 281 282 282 281 281 281 280
245 247 250 251 252 254 255 256 258 258 259 262 264 266 270 273 275 277 279 280 281 281 281 282 283 283 284 284 284 285 285 285 285 284 284 284 283 284 283 282 282 281 281
Height
5850 5847 5845 5844 5843 5842 5843 5844 5846 5847 5851 5854 5857 5861 5864 5867 5870 5872 5875 5877 5878 5880 5882 5883 5884 5885 5886 5887 5887 5888 5888 5888 5889 5889 5888 5888 5887 5887 5886 5886 5885 5885 5884
5848 5845 5843 5842 5841 5841 5841 5843 5844 5847 5849 5852 5855 5858 5862 5864 5867 5870 5873 5875 5877 5879 5881 5882 5884 5885 5886 5886 5887 5888 5888 5888 5889 5889 5888 5888 5888 5887 5886 5886 5886 5885 5884
5845 5843 5842 5841 5840 5840 5840 5841 5843 5845 5847 5850 5853 5856 5860 5863 5866 5869 5872 5874 5876 5878 5880 5881 5883 5884 5885 5886 5887 5887 5888 5888 5888 5888 5889 5888 5888 5887 5887 5886 5886 5885 5885
5843 5841 5840 5840 5839 5838 5838 5839 5841 5843 5845 5848 5851 5854 5858 5861 5864 5867 5870 5872 5874 5876 5878 5880 5881 5883 5884 5885 5886 5887 5887 5888 5888 5888 5888 5888 5888 5888 5887 5887 5886 5885 5885
5841 5840 5839 5838 5837 5837 5837 5837 5838 5841 5843 5846 5849 5852 5856 5859 5862 5865 5868 5870 5873 5875 5877 5879 5880 5882 5883 5884 5885 5886 5887 5887 5887 5888 5887 5887 5887 5887 5887 5886 5886 5885 5884
5840 5838 5837 5836 5836 5835 5835 5836 5837 5839 5841 5844 5847 5850 5854 5857 5860 5863 5866 5869 5871 5873 5875 5877 5879 5880 5882 5883 5884 5885 5886 5886 5887 5887 5887 5887 5886 5886 5886 5885 5885 5884 5884
5839 5838 5837 5836 5835 5834 5834 5834 5835 5837 5839 5842 5845 5849 5852 5855 5858 5861 5864 5867 5869 5872 5874 5875 5877 5879 5880 5881 5883 5884 5885 5885 5885 5885 5885 5886 5885 5885 5885 5884 5883 5883 5882
5839 5837 5836 5835 5834 5833 5833 5834 5835 5836 5838 5841 5844 5847 5850 5854 5857 5860 5863 5865 5867 5870 5872 5873 5875 5877 5878 5879 5881 5882 5883 5883 5884 5884 5884 5884 5884 5883 5883 5883 5882 5881 5880
5838 5837 5835 5834 5834 5833 5833 5833 5834 5836 5838 5840 5843 5846 5849 5852 5855 5858 5860 5862 5865 5867 5869 5871 5873 5874 5875 5877 5878 5879 5880 5880 5881 5881 5881 5881 5881 5881 5880 5880 5879 5879 5878
5837 5836 5835 5834 5833 5833 5833 5833 5833 5835 5837 5839 5842 5845 5847 5850 5853 5855 5857 5860 5862 5864 5866 5868 5869 5871 5872 5874 5875 5876 5877 5877 5878 5878 5878 5878 5878 5878 5877 5877 5876 5875 5875
5836 5835 5834 5833 5833 5832 5832 5833 5833 5835 5836 5838 5841 5843 5846 5848 5850 5852 5855 5857 5859 5861 5863 5865 5866 5867 5869 5870 5871 5872 5873 5873 5873 5874 5874 5874 5873 5873 5873 5872 5871 5871 5870
5834 5834 5833 5833 5832 5832 5832 5833 5833 5834 5836 5837 5840 5842 5844 5846 5848 5850 5852 5854 5856 5857 5859 5861 5862 5863 5864 5865 5866 5867 5867 5868 5868 5868 5869 5868 5868 5867 5867 5866 5866 5865 5864
5832 5832 5832 5832 5832 5832 5832 5832 5833 5833 5834 5836 5838 5840 5842 5844 5845 5847 5848 5849 5852 5854 5855 5857 5858 5859 5860 5861 5861 5862 5862 5862 5862 5862 5862 5862 5861 5861 5860 5860 5859 5858 5857
5830 5830 5830 5830 5830 5831 5831 5831 5832 5833 5833 5835 5836 5838 5840 5841 5843 5844 5845 5846 5848 5849 5851 5852 5853 5854 5855 5855 5855 5856 5856 5856 5856 5856 5855 5854 5854 5853 5853 5852 5851 5850 5849
5827 5827 5827 5828 5828 5829 5829 5830 5830 5831 5832 5833 5835 5836 5837 5839 5840 5842 5843 5844 5845 5845 5846 5847 5848 5848 5849 5849 5849 5849 5849 5849 5848 5848 5847 5847 5846 5845 5844 5843 5842 5841 5840
5823 5823 5824 5824 5825 5825 5826 5827 5828 5829 5830 5831 5832 5833 5834 5835 5837 5838 5839 5840 5841 5841 5841 5842 5842 5842 5842 5842 5842 5842 5841 5841 5840 5839 5839 5838 5837 5836 5835 5834 5833 5832 5830
5818 5819 5820 5821 5821 5822 5823 5824 5825 5826 5827 5827 5828 5829 5830 5831 5832 5833 5834 5835 5835 5836 5836 5836 5835 5835 5835 5835 5834 5834 5833 5832 5831 5830 5829 5828 5827 5826 5825 5824 5822 5821 5819
5813 5814 5815 5816 5817 5818 5819 5820 5821 5822 5823 5824 5824 5825 5826 5827 5827 5828 5828 5829 5829 5829 5829 5829 5829 5828 5828 5827 5826 5825 5823 5823 5821 5820 5819 5818 5816 5815 5813 5812 5811 5810 5809
5808 5809 5810 5811 5812 5813 5814 5815 5816 5817 5818 5819 5820 5820 5821 5821 5822 5822 5822 5822 5822 5822 5822 5821 5821 5820 5819 5818 5817 5815 5814 5813 5811 5810 5808 5807 5805 5804 5802 5800 5799 5798 5797
5801 5803 5804 5805 5807 5808 5809 5809 5810 5811 5812 5813 5814 5814 5815 5815 5815 5815 5815 5815 5815 5815 5814 5813 5812 5811 5810 5809 5807 5806 5804 5803 5801 5799 5797 5795 5794 5792 5790 5788 5787 5785 5784
5795 5796 5798 5799 5800 5802 5803 5803 5804 5805 5806 5807 5807 5808 5808 5809 5809 5808 5808 5807 5807 5806 5805 5804 5803 5802 5801 5800 5798 5796 5794 5792 5790 5788 5786 5784 5782 5780 5778 5775 5773 5772 5770
5788 5790 5791 5793 5794 5795 5796 5797 5798 5799 5799 5800 5800 5801 5801 5801 5801 5801 5800 5799 5799 5798 5796 5795 5794 5792 5791 5789 5787 5785 5783 5781 5779 5776 5774 5771 5769 5767 5765 5762 5760 5758 5756
5781 5783 5784 5786 5787 5788 5789 5790 5791 5791 5792 5793 5793 5794 5794 5793 5793 5792 5792 5791 5790 5789 5787 5786 5784 5782 5780 5778 5776 5774 5772 5769 5767 5764 5761 5758 5756 5753 5751 5748 5746 5744 5741
5773 5775 5777 5779 5780 5781 5782 5783 5783 5784 5785 5785 5786 5786 5786 5785 5784 5784 5783 5782 5781 5779 5777 5776 5774 5771 5769 5767 5764 5762 5759 5756 5753 5750 5747 5745 5742 5739 5736 5734 5731 5729 5727
5766 5768 5770 5771 5773 5774 5775 5775 5775 5776 5777 5777 5777 5777 5777 5777 5776 5775 5774 5772 5771 5769 5767 5765 5763 5760 5757 5755 5752 5749 5746 5743 5740 5736 5733 5730 5727 5724 5721 5719 5716 5714 5711
5759 5761 5762 5764 5765 5767 5767 5768 5769 5769 5769 5770 5770 5769 5769 5768 5767 5766 5764 5762 5761 5759 5757 5754 5752 5749 5746 5742 5740 5736 5733 5729 5726 5723 5719 5716 5713 5710 5707 5704 5701 5698 5696